Weather History for KUXL - January, 2013

Change the Weather History Date:

Saturday, January 26, 2013

  Actual Average (KLCH) Record (KLCH)
Temperature  
Mean Temperature 65 °F 52 °F  
Max Temperature 77 °F 62 °F 83 °F (1912)
Min Temperature 53 °F 43 °F 18 °F (1940)
Degree Days  
Heating Degree Days 0 13  
Month to date heating degree days 358  
Since 1 July heating degree days 932  
Cooling Degree Days 0 0  
Month to date cooling degree days 0  
Year to date cooling degree days 0  
Growing Degree Days 15 (Base 50)    
Moisture  
Dew Point 60 °F    
Average Humidity 88    
Maximum Humidity 100    
Minimum Humidity 57    
Precipitation  
Precipitation 0.00 in 0.15 in 1.70 in (1974)
Month to date precipitation 4.45  
Year to date precipitation 4.45  
Snow  
Snow 0.00 in 0.00 in 0.00 in ()
Month to date snowfall 0.0  
Since 1 July snowfall T  
Snow Depth -    
Sea Level Pressure  
Sea Level Pressure 30.19 in    
Wind  
Wind Speed 3 mph (SSE)    
Max Wind Speed 13 mph    
Max Gust Speed 18 mph    
Visibility 6 miles    
Events Fog    
T = Trace of Precipitation, MM = Missing Value Source: NWS Daily Summary

Daily Weather History Graph

Daily Weather History Graph

Search for Another Location

Airport or City:

Trip Planner

Search our weather history database for the weather conditions in past years. The results will help you decide how hot, cold, wet, or windy it might be!

Date:

Astronomy

Jan. 26, 2013 Rise Set
Actual Time 7:06 AM CST 5:45 PM CST
Civil Twilight 6:41 AM CST 6:10 PM CST
Nautical Twilight 6:12 AM CST 6:39 PM CST
Astronomical Twilight 5:44 AM CST 7:08 PM CST
Moon 5:37 PM CST (1/26) 6:27 AM CST (1/26)
Length of Visible Light 11h 29m
Length of Day
10h 38m
Full, 100% of the Moon is Illuminated
Jan 26
Full
Jan 26
Full
Feb 3
Last Quarter
Feb 10
New
Feb 17
First Quarter

Hourly Weather History & Observations

Time (CST) Temp. Dew Point Humidity Pressure Visibility Wind Dir Wind Speed Gust Speed Precip Events Conditions
12:15 AM 53.6 °F 53.6 °F 100% 30.18 in 0.2 mi Calm Calm - N/A Fog Fog
12:35 AM 55.4 °F 55.4 °F 100% 30.18 in 0.2 mi Calm Calm - N/A Fog Fog
12:55 AM 57.2 °F 57.2 °F 100% 30.18 in 0.2 mi Calm Calm - N/A Fog Fog
1:15 AM 53.6 °F 53.6 °F 100% 30.18 in 0.2 mi Calm Calm - N/A Fog Fog
1:35 AM 55.4 °F 55.4 °F 100% 30.18 in 0.2 mi Calm Calm - N/A Fog Fog
1:55 AM 53.6 °F 53.6 °F 100% 30.18 in 0.2 mi Calm Calm - N/A Fog Fog
2:15 AM 55.4 °F 55.4 °F 100% 30.19 in 0.2 mi Calm Calm - N/A Fog Fog
2:35 AM 55.4 °F 55.4 °F 100% 30.18 in 0.5 mi Calm Calm - N/A Fog Fog
2:55 AM 55.4 °F 55.4 °F 100% 30.18 in 0.2 mi SSE 3.5 mph - N/A Fog Fog
3:15 AM 55.4 °F 55.4 °F 100% 30.18 in 0.5 mi SE 3.5 mph - N/A Fog Fog
3:35 AM 55.4 °F 55.4 °F 100% 30.17 in 0.2 mi SE 4.6 mph - N/A Fog Fog
3:55 AM 59.0 °F 59.0 °F 100% 30.17 in 0.2 mi Calm Calm - N/A Fog Fog
4:15 AM 59.0 °F 59.0 °F 100% 30.17 in 0.2 mi SE 3.5 mph - N/A Fog Fog
4:35 AM 59.0 °F 59.0 °F 100% 30.17 in 0.5 mi Calm Calm - N/A Fog Fog
4:55 AM 59.0 °F 59.0 °F 100% 30.18 in 0.2 mi SE 3.5 mph - N/A Fog Fog
5:15 AM 59.0 °F 59.0 °F 100% 30.17 in 0.5 mi SSE 4.6 mph - N/A Fog Fog
5:35 AM 59.0 °F 59.0 °F 100% 30.17 in 0.5 mi Calm Calm - N/A Fog Fog
5:55 AM 57.2 °F 57.2 °F 100% 30.17 in 0.2 mi Calm Calm - N/A Fog Fog
6:15 AM 55.4 °F 55.4 °F 100% 30.18 in 0.2 mi Calm Calm - N/A Fog Fog
6:35 AM 55.4 °F 55.4 °F 100% 30.19 in 0.2 mi Calm Calm - N/A Fog Fog
7:15 AM 55.4 °F 55.4 °F 100% 30.19 in 0.2 mi Calm Calm - N/A Fog Fog
7:35 AM 55.4 °F 55.4 °F 100% 30.20 in 0.2 mi Calm Calm - N/A Fog Fog
7:55 AM 55.4 °F 55.4 °F 100% 30.20 in 0.2 mi Calm Calm - N/A Fog Fog
8:15 AM 60.8 °F 60.8 °F 100% 30.20 in 1.0 mi Calm Calm - N/A   Overcast
8:35 AM 62.6 °F 62.6 °F 100% 30.21 in 1.0 mi Calm Calm - N/A   Overcast
8:55 AM 62.6 °F 62.6 °F 100% 30.22 in 0.2 mi Calm Calm - N/A Fog Fog
9:15 AM 62.6 °F 62.6 °F 100% 30.22 in 3.0 mi Calm Calm - N/A   Overcast
9:35 AM 64.4 °F 64.4 °F 100% 30.23 in 10.0 mi SE 3.5 mph - N/A   Scattered Clouds
9:55 AM 66.2 °F 66.2 °F 100% 30.23 in 10.0 mi SE 4.6 mph - N/A   Scattered Clouds
10:15 AM 68.0 °F 68.0 °F 100% 30.23 in 10.0 mi SSE 5.8 mph - N/A   Scattered Clouds
10:35 AM 71.6 °F 64.4 °F 78% 30.23 in 10.0 mi South 8.1 mph - N/A   Clear
10:55 AM 71.6 °F 64.4 °F 78% 30.24 in 10.0 mi South 9.2 mph - N/A   Scattered Clouds
11:15 AM 71.6 °F 62.6 °F 73% 30.23 in 10.0 mi SSW 8.1 mph - N/A   Scattered Clouds
11:35 AM 73.4 °F 62.6 °F 69% 30.22 in 10.0 mi South 5.8 mph - N/A   Mostly Cloudy
11:55 AM 73.4 °F 62.6 °F 69% 30.22 in 10.0 mi SSE 10.4 mph - N/A   Scattered Clouds
12:15 PM 71.6 °F 60.8 °F 69% 30.20 in 10.0 mi South 6.9 mph - N/A   Scattered Clouds
12:35 PM 77.0 °F 60.8 °F 57% 30.20 in 10.0 mi South 9.2 mph - N/A   Mostly Cloudy
12:55 PM 75.2 °F 60.8 °F 61% 30.19 in 10.0 mi South 11.5 mph - N/A   Mostly Cloudy
1:15 PM 77.0 °F 60.8 °F 57% 30.18 in 10.0 mi South 11.5 mph 16.1 mph N/A   Scattered Clouds
1:35 PM 75.2 °F 60.8 °F 61% 30.18 in 10.0 mi South 10.4 mph - N/A   Mostly Cloudy
1:55 PM 75.2 °F 60.8 °F 61% 30.18 in 10.0 mi South 11.5 mph - N/A   Scattered Clouds
2:15 PM 75.2 °F 60.8 °F 61% 30.17 in 10.0 mi SSE 11.5 mph 18.4 mph N/A   Scattered Clouds
2:35 PM 75.2 °F 60.8 °F 61% 30.16 in 10.0 mi South 10.4 mph 16.1 mph N/A   Scattered Clouds
2:55 PM 73.4 °F 60.8 °F 65% 30.16 in 10.0 mi South 9.2 mph - N/A   Clear
3:15 PM 73.4 °F 60.8 °F 65% 30.16 in 10.0 mi South 11.5 mph - N/A   Scattered Clouds
3:35 PM 73.4 °F 60.8 °F 65% 30.16 in 10.0 mi SE 12.7 mph - N/A   Scattered Clouds
3:55 PM 71.6 °F 60.8 °F 69% 30.16 in 10.0 mi SE 11.5 mph - N/A   Scattered Clouds
4:15 PM 71.6 °F 60.8 °F 69% 30.16 in 10.0 mi SE 12.7 mph 17.3 mph N/A   Scattered Clouds
4:35 PM 71.6 °F 60.8 °F 69% 30.16 in 10.0 mi SSE 10.4 mph - N/A   Scattered Clouds
4:55 PM 69.8 °F 60.8 °F 73% 30.17 in 10.0 mi SSE 12.7 mph - N/A   Clear
5:15 PM 69.8 °F 60.8 °F 73% 30.17 in 10.0 mi SSE 6.9 mph - N/A   Clear
5:35 PM 68.0 °F 60.8 °F 78% 30.17 in 10.0 mi SSE 8.1 mph - N/A   Clear
5:55 PM 66.2 °F 60.8 °F 83% 30.17 in 10.0 mi SE 4.6 mph - N/A   Clear
6:15 PM 64.4 °F 60.8 °F 88% 30.17 in 10.0 mi SSE 5.8 mph - N/A   Clear
6:35 PM 62.6 °F 60.8 °F 94% 30.17 in 10.0 mi SE 4.6 mph - N/A   Clear
6:55 PM 62.6 °F 60.8 °F 94% 30.18 in 10.0 mi SE 3.5 mph - N/A   Clear
7:15 PM 62.6 °F 60.8 °F 94% 30.18 in 10.0 mi SE 4.6 mph - N/A   Clear
7:35 PM 62.6 °F 60.8 °F 94% 30.18 in 10.0 mi SE 4.6 mph - N/A   Clear
7:55 PM 62.6 °F 60.8 °F 94% 30.19 in 10.0 mi ESE 4.6 mph - N/A   Clear
8:15 PM 62.6 °F 60.8 °F 94% 30.19 in 10.0 mi SE 3.5 mph - N/A   Clear
8:35 PM 62.6 °F 60.8 °F 94% 30.19 in 10.0 mi SE 4.6 mph - N/A   Clear
8:55 PM 62.6 °F 60.8 °F 94% 30.19 in 10.0 mi SE 4.6 mph - N/A   Clear
9:15 PM 62.6 °F 60.8 °F 94% 30.19 in 10.0 mi SE 5.8 mph - N/A   Clear
9:35 PM 62.6 °F 60.8 °F 94% 30.19 in 10.0 mi SE 5.8 mph - N/A   Clear
9:55 PM 62.6 °F 60.8 °F 94% 30.20 in 10.0 mi SE 4.6 mph - N/A   Clear
10:15 PM 60.8 °F 59.0 °F 94% 30.20 in 10.0 mi ESE 3.5 mph - N/A   Clear
10:35 PM 59.0 °F 59.0 °F 100% 30.20 in 10.0 mi ESE 3.5 mph - N/A   Clear
10:55 PM 60.8 °F 59.0 °F 94% 30.20 in 10.0 mi ESE 4.6 mph - N/A   Clear
11:15 PM 60.8 °F 59.0 °F 94% 30.20 in 10.0 mi ESE 6.9 mph - N/A   Clear
11:35 PM 60.8 °F 59.0 °F 94% 30.20 in 10.0 mi ESE 5.8 mph - N/A   Clear
11:55 PM 60.8 °F 59.0 °F 94% 30.19 in 10.0 mi SE 5.8 mph - N/A   Clear